Presure
171 167 168 199 192 185 177 176 178 184 194 198 199 155 164 169 174 179 231 206 207 195 189 196 224 213 230 222 217 200 194 178 174 144 153 161 174 147 146 154 143 153 135 126
184 234 206 186 162 160 191 197 196 192 165 159 158 167 168 181 184 223 224 212 198 229 219 209 180 202 200 218 217 207 188 178 173 171 158 158 167 160 148 154 158 141 138 138
202 197 190 180 248 183 163 159 160 160 160 170 177 187 182 228 227 223 213 203 220 211 179 185 201 200 196 199 209 219 203 185 180 155 143 161 165 171 166 152 154 157 140 143
204 206 202 253 153 250 194 174 171 165 176 191 190 189 231 225 218 217 203 223 208 174 197 164 200 211 197 194 203 203 196 197 187 172 168 156 167 168 173 174 150 162 169 150
229 252 247 245 250 246 203 195 195 197 196 194 235 234 227 226 217 204 198 220 185 172 161 179 186 211 193 199 204 208 194 200 179 200 184 145 161 176 176 178 187 154 157 160
249 244 243 241 235 202 221 203 196 194 240 239 233 228 237 215 206 206 225 188 180 177 182 190 192 173 203 182 200 204 203 194 181 187 184 177 164 138 167 183 181 209 157 174
238 238 238 229 204 184 238 214 237 240 224 220 210 207 212 190 242 241 206 184 191 199 200 200 199 228 185 194 190 192 209 199 197 192 178 183 157 158 124 172 167 189 183 175
229 230 232 193 223 230 240 228 207 207 202 187 186 193 227 220 205 188 195 171 198 193 195 209 209 204 204 223 186 185 186 194 204 192 188 191 176 163 149 150 148 140 181 185
233 230 235 239 232 218 210 203 197 200 207 216 226 201 204 190 185 155 164 152 153 196 162 203 220 219 218 210 214 194 195 188 205 218 203 208 188 176 170 169 153 151 143 151
231 227 232 212 208 204 213 225 220 214 208 205 195 197 150 150 161 174 166 166 169 171 174 170 153 160 196 216 211 218 213 207 206 203 194 199 204 206 200 192 189 185 157 190
226 219 203 224 203 214 209 206 206 183 170 163 165 163 176 164 168 152 151 154 152 170 170 168 152 153 152 168 172 173 206 239 174 160 158 184 174 140 155 153 163 143 152 153
203 207 209 210 209 187 158 157 155 154 152 151 152 151 153 149 140 141 144 145 164 155 154 169 166 156 173 162 171 168 151 148 142 161 144 140 152 140 155 140 193 139 158 176
200 198 163 169 149 147 155 173 176 176 175 170 165 162 153 152 156 142 165 164 165 157 171 168 161 179 166 158 165 142 140 145 146 141 144 149 151 143 148 160 148 168 137 186
166 158 158 160 170 167 170 177 178 177 172 169 170 162 163 168 166 164 160 153 157 167 171 159 155 178 159 172 157 138 141 144 154 144 143 174 141 150 154 151 148 151 132 184
172 172 175 172 172 171 171 171 167 168 167 164 156 158 164 160 152 164 166 166 165 159 172 172 152 186 152 191 192 162 131 143 129 155 160 174 162 147 161 138 162 150 134 191
176 180 175 174 171 169 157 160 166 178 184 183 184 183 187 190 185 181 178 179 171 171 164 186 175 193 187 151 147 147 160 172 129 141 159 149 192 137 149 170 150 158 136 135
172 169 166 166 165 171 175 178 178 182 190 206 222 218 211 204 202 203 212 220 203 191 176 173 190 176 149 176 155 145 189 171 153 135 155 171 188 147 168 149 141 141 146 136
161 165 167 168 170 177 181 179 163 212 216 211 193 206 191 218 213 208 207 205 171 217 234 189 189 161 181 150 171 192 174 185 183 177 152 175 181 153 183 140 147 153 141 149
167 165 166 170 173 176 184 194 213 201 200 186 211 196 221 201 323 307 307 319 348 285 265 225 231 170 174 190 170 213 173 168 162 130 162 180 119 153 133 171 145 150 161 134
164 168 168 170 171 179 191 212 205 197 193 196 194 227 207 307 305 308 317 308 306 308 351 266 254 196 228 187 146 166 202 135 185 135 172 148 168 143 151 147 125 146 138 162
172 171 169 173 182 192 205 197 192 193 194 215 220 207 306 285 281 284 284 296 297 299 322 359 261 169 252 186 208 188 199 151 165 184 167 147 163 143 176 152 124 129 126 135
175 175 175 191 192 195 187 184 192 198 212 219 250 292 288 275 264 279 285 288 294 300 298 344 381 185 223 218 222 178 189 194 151 137 143 125 162 160 194 147 128 163 183 166
180 192 187 194 196 188 187 192 202 213 212 221 262 321 268 261 255 263 261 270 274 292 306 323 362 190 193 160 207 217 213 157 209 169 194 150 161 113 189 131 128 132 117 137
190 189 190 188 188 192 199 201 211 210 206 252 260 281 268 250 263 256 260 270 261 267 283 309 336 204 164 223 192 205 162 174 191 155 143 138 234 146 161 144 134 172 137 140
189 184 185 190 194 198 205 210 206 201 243 251 264 280 260 260 264 251 248 254 262 268 269 284 302 260 208 169 180 208 167 185 181 188 143 157 204 135 185 166 154 145 142 150
188 190 195 196 199 207 202 204 206 220 257 267 265 308 257 262 252 248 244 257 270 273 272 268 207 273 178 205 172 191 160 170 187 173 208 173 175 173 177 171 156 160 157 177
Wind_Speed
36 37 34 39 38 37 39 39 40 38 36 34 33 33 36 33 30 29 18 19 19 21 18 20 14 12 8 14 23 35 31 28 28 18 23 24 25 23 19 24 24 22 21 16
35 39 37 37 35 33 36 39 39 35 27 25 29 30 36 35 31 18 16 16 18 14 11 14 11 15 13 10 18 32 34 30 29 28 25 26 28 31 26 26 25 20 23 19
35 36 35 35 37 37 37 33 28 28 30 30 32 30 27 24 22 16 17 14 11 12 13 13 13 14 16 14 16 23 34 35 34 23 15 24 23 24 28 25 26 27 24 24
34 36 36 32 17 30 35 35 29 29 33 31 28 31 19 19 23 18 16 13 12 12 11 14 13 14 18 19 18 29 33 37 36 30 29 21 26 27 29 27 24 28 29 26
33 25 26 28 26 25 31 32 29 27 28 28 22 21 21 18 21 18 14 15 14 14 16 14 12 15 18 17 16 17 30 29 33 32 31 16 17 24 26 26 28 24 21 31
24 23 26 24 21 27 24 25 23 24 20 20 20 18 20 13 16 13 14 14 14 14 14 14 11 15 18 18 14 17 21 32 34 32 30 28 22 8 18 24 25 24 21 25
21 23 20 21 21 23 21 19 18 16 14 13 10 13 15 6 10 15 11 10 13 13 11 12 13 17 16 20 17 15 18 23 26 29 27 27 19 15 2 18 17 21 24 28
22 20 19 20 18 15 15 11 13 12 7 13 16 11 13 6 6 7 6 11 10 3 2 13 15 15 15 18 19 18 18 19 27 26 24 25 23 19 12 11 9 7 18 28
19 19 17 14 14 14 14 12 13 11 8 12 10 10 6 9 10 13 11 13 14 6 9 3 14 14 16 14 17 11 18 18 19 23 25 25 19 22 19 18 12 10 8 15
16 16 9 15 12 11 12 13 13 12 11 11 8 9 16 16 13 10 15 16 16 13 10 12 13 10 6 11 9 17 18 16 19 21 17 18 20 17 17 15 15 13 15 21
13 14 16 14 14 13 14 14 13 12 13 13 15 14 15 16 15 22 24 21 20 15 15 14 15 14 14 13 15 13 8 21 11 20 17 13 8 14 18 15 17 3 16 12
17 14 14 12 13 14 16 17 16 17 17 19 21 24 24 23 27 30 31 29 23 23 21 21 22 22 16 15 15 20 22 23 22 17 21 21 12 20 4 14 21 15 18 15
12 11 16 15 17 18 19 20 19 17 17 19 23 27 29 30 28 34 29 31 32 28 26 25 25 22 24 26 24 25 25 27 25 25 19 22 20 24 7 20 12 60 21 30
17 18 19 20 18 20 22 21 22 21 20 22 26 30 32 33 34 36 37 37 38 35 32 32 34 32 36 29 31 33 32 32 33 32 27 24 28 21 20 15 26 23 28 37
19 20 19 19 22 23 25 27 28 27 28 29 32 36 38 40 41 42 43 43 44 43 40 39 40 40 45 45 50 43 38 44 43 36 23 32 26 33 30 29 31 29 23 39
22 22 21 23 25 29 30 32 34 35 36 37 40 41 44 46 49 52 52 54 52 51 49 52 47 48 48 59 55 40 49 54 34 51 25 33 40 38 31 16 10 43 23 26
23 25 26 29 31 34 37 37 37 40 45 46 45 43 43 46 52 57 59 62 65 63 61 58 59 52 42 69 50 44 74 57 43 58 40 23 15 32 27 20 22 8 21 28
28 30 33 35 37 39 42 41 37 47 47 46 44 47 49 55 57 61 62 66 47 71 73 67 68 66 64 54 76 65 68 63 50 15 26 6 2 29 16 33 13 27 18 42
31 35 37 40 44 48 50 50 47 46 51 49 53 52 58 55 40 46 47 46 45 77 80 76 76 72 73 64 70 65 67 48 43 34 16 5 35 20 32 5 6 21 48 17
37 38 42 44 48 53 54 48 49 52 54 55 55 61 58 42 37 42 44 44 47 42 50 81 82 80 75 56 49 67 76 30 49 36 26 31 12 35 10 7 21 23 26 33
40 43 45 49 52 52 52 52 53 57 57 61 63 59 39 41 41 37 42 44 41 46 49 51 62 76 74 79 82 87 76 30 51 39 33 42 17 38 31 8 17 17 19 38
45 46 49 50 50 52 53 55 57 62 64 63 64 50 38 41 43 45 41 37 38 37 42 44 42 75 85 88 90 75 69 61 37 28 26 39 32 20 45 32 57 51 50 46
49 47 50 51 50 54 55 56 60 62 64 65 60 39 43 40 44 40 39 35 34 37 36 39 37 70 82 66 82 78 86 49 71 44 38 33 37 25 51 49 70 39 24 64
49 50 53 52 53 55 56 57 61 60 64 63 56 41 39 39 36 40 36 35 33 32 34 34 32 95 67 91 87 88 41 48 64 50 28 28 53 23 92 89 65 96 55 50
52 55 57 56 58 58 58 61 59 60 62 59 51 38 36 32 27 31 33 36 34 32 26 28 24 53 100 84 90 86 79 65 58 76 37 40 78 32 99 110 67 58 62 66
56 59 60 59 61 61 59 60 60 63 57 52 46 31 37 30 27 27 33 38 38 35 30 25 62 28 80 101 89 88 68 61 80 62 95 63 55 87 89 63 39 78 67 73
Wind_Direction
256 257 259 267 265 266 269 272 274 278 282 282 282 279 285 285 283 280 279 275 267 271 280 281 222 217 172 196 197 196 203 206 207 206 196 202 210 209 206 205 211 199 226 262
262 264 266 264 260 263 266 268 271 277 280 276 277 280 284 283 282 276 260 249 256 244 240 257 278 225 214 188 196 199 205 207 208 209 194 196 205 208 210 211 212 211 225 225
269 269 265 261 264 259 262 269 275 278 281 283 281 278 276 271 274 263 256 255 241 238 273 262 228 224 214 200 194 197 205 209 208 211 215 206 207 215 218 214 213 213 222 225
271 268 266 263 264 263 258 266 273 276 278 278 278 280 259 249 262 255 252 239 237 249 239 266 243 203 213 209 198 196 200 206 212 212 214 211 211 216 226 227 217 222 219 228
271 261 261 258 257 258 259 264 270 273 272 277 261 252 256 238 240 245 238 228 226 234 261 236 235 231 216 202 186 199 203 202 213 218 222 214 220 230 231 236 242 224 218 221
261 251 246 252 251 255 258 264 270 270 254 255 262 265 262 251 256 254 244 237 246 249 245 239 226 217 219 231 205 205 210 208 217 215 219 220 223 235 238 240 239 250 232 227
248 250 247 246 250 258 253 260 264 260 264 269 279 262 260 231 266 236 236 284 269 267 253 249 237 218 219 215 209 213 215 219 222 224 224 224 227 231 248 247 241 241 237 236
240 244 246 245 251 254 252 253 244 249 252 233 237 262 264 274 240 225 254 193 254 261 306 275 251 246 236 216 209 210 222 230 230 232 235 231 236 237 239 252 244 262 248 236
232 234 235 232 231 222 227 235 241 236 236 238 229 238 226 186 221 227 189 208 219 256 177 275 269 261 248 246 232 205 213 227 229 226 234 240 235 241 245 252 261 276 292 290
226 235 220 221 218 222 228 222 221 226 215 218 219 242 223 230 224 225 224 202 190 193 187 161 188 167 222 256 242 248 245 242 233 228 225 228 231 239 239 253 274 286 3 292
216 215 206 212 217 212 212 209 218 224 228 233 246 247 233 226 228 249 248 233 224 200 202 190 204 201 197 175 143 142 237 266 180 104 103 104 110 200 76 85 357 151 341 347
196 203 210 203 204 229 250 255 252 253 255 256 256 259 258 254 258 264 268 266 233 234 237 205 191 203 181 179 158 153 158 171 195 145 194 216 175 220 31 192 338 238 278 315
214 227 252 236 259 260 254 250 253 250 250 246 249 252 256 257 250 261 253 256 259 258 226 218 211 192 187 197 181 219 221 208 200 198 223 229 207 210 230 315 184 356 240 313
245 256 262 265 253 255 264 266 262 258 251 258 257 257 259 260 254 252 247 252 255 252 243 247 243 208 210 204 205 226 222 226 201 208 219 242 226 232 258 257 335 335 239 318
252 252 254 261 274 276 269 269 272 271 268 261 261 265 264 263 267 263 258 253 253 253 242 238 244 220 246 195 208 205 240 223 248 207 218 241 246 228 246 227 336 341 248 300
258 261 264 263 263 264 270 273 275 273 273 271 270 271 271 267 261 259 255 252 248 245 241 236 234 229 212 248 252 267 215 229 246 244 200 223 236 236 218 265 343 345 255 275
266 272 274 278 280 282 279 281 285 287 286 283 283 280 273 266 264 264 261 258 251 239 238 231 230 216 208 193 245 252 216 224 227 255 227 227 223 235 224 232 223 277 304 303
277 278 279 280 280 283 287 291 290 289 288 287 283 285 275 284 276 270 263 258 250 251 247 231 225 240 229 243 211 216 219 224 217 161 252 250 229 245 195 227 227 328 291 311
281 284 286 289 293 294 294 294 293 292 291 288 296 288 292 286 292 285 281 278 280 255 251 240 234 234 221 232 220 221 219 225 231 269 207 196 249 196 239 24 234 317 311 269
284 287 290 292 291 292 291 294 293 292 292 297 297 299 294 300 298 301 292 280 280 285 273 246 240 223 225 231 257 235 213 214 221 264 106 224 160 204 206 197 221 306 295 282
283 284 289 288 288 289 293 294 296 297 299 303 303 300 301 300 301 304 299 290 287 286 292 288 238 243 225 213 217 214 207 230 235 169 157 218 111 231 211 250 227 280 275 265
283 285 286 285 290 292 295 297 300 300 305 306 313 305 296 313 312 311 307 303 301 298 300 297 290 224 207 213 216 198 210 187 241 254 244 254 154 173 231 144 256 291 258 241
285 285 286 289 292 292 294 297 301 306 305 309 316 298 312 310 307 304 306 313 319 321 313 309 296 238 198 252 214 210 214 259 209 221 213 263 171 213 172 193 223 222 261 251
284 286 287 290 290 293 298 301 304 306 306 314 315 300 306 306 298 304 312 319 309 315 322 321 313 201 247 201 188 185 239 210 181 272 269 268 191 240 188 201 219 193 243 245
287 287 288 292 293 296 301 302 304 305 312 311 314 297 307 306 312 311 312 318 319 307 311 320 295 222 191 234 220 191 241 201 190 188 264 248 184 251 191 201 219 227 238 244
287 287 290 293 294 297 299 300 303 307 313 317 317 289 299 312 309 313 317 318 315 307 297 298 224 249 223 189 227 192 259 231 193 214 207 212 213 205 204 218 245 222 233 237